Find Starlink 30955

NORAD ID: 58417 Int'l Des: 2023-180 Owner: SPXS Country: US Constellation: starlink operational
LEOCIRCULAR

Live-Position

3D-Globus wird geladen...

Über Starlink 30955

Beschreibung wird geladen...

Nächste Überflüge

Passes for default location (London). Set your location on the main map for personalized predictions.

Höhenverlauf

Loading altitude history...

Zweizeiliger Elementsatz

1 58417U 23180R 26130.10598016 -.00001212 00000-0 -34523-4 0 9990
2 58417 43.0017 65.2762 0001002 270.2919 89.7817 15.27572184137028
Epoch: 10. Mai 2026 • Age: 9 hours

Aktueller Status

Höhe 485.4 km
Geschwindigkeit 7.62 km/s
Subsatellitenpunkt -13.46°S, 139.16°W
Startdatum 22. Nov. 2023
Alter 2.4 years
Typ internet

Technische Details

Klassifizierung Payload
Masse 730.00 kg
Trockenmasse 700.00 kg
Gesamtmasse 730.00 kg
Länge 0.30 m
Durchmesser 4.10 m
Spannweite 29.00 m
Form Box + pan
Hersteller SPXS
Bus-Typ Starlink V2M
Phasenstatus In Orbit
Besitzer/Staat SPXS/US

Most Searched